Weather History for PHBK - July, 2013

Change the Weather History Date:

Thursday, July 11, 2013

  Actual Average Record
Temperature  
Mean Temperature 80 °F -  
Max Temperature 84 °F 87 °F 91 °F (1968)
Min Temperature 73 °F 67 °F 62 °F (1954)
Cooling Degree Days 14    
Growing Degree Days 30 (Base 50)    
Moisture  
Dew Point 65 °F    
Average Humidity 61    
Maximum Humidity 67    
Minimum Humidity 54    
Precipitation  
Precipitation 0.00 in - - ()
Sea Level Pressure  
Sea Level Pressure 30.09 in    
Wind  
Wind Speed 4 mph (WSW)    
Max Wind Speed 10 mph    
Max Gust Speed -    
Visibility 10 miles    
Events      
Averages and records for this station are not official NWS values.
T = Trace of Precipitation, MM = Missing Value Source: NWS Daily Summary

Daily Weather History Graph

Daily Weather History Graph

Search for Another Location

Airport or City:

Trip Planner

Search our weather history database for the weather conditions in past years. The results will help you decide how hot, cold, wet, or windy it might be!

Date:

Astronomy

Jul. 11, 2013 Rise Set
Actual Time 6:03 AM HST 7:26 PM HST
Civil Twilight 5:38 AM HST 7:50 PM HST
Nautical Twilight 5:08 AM HST 8:20 PM HST
Astronomical Twilight 4:38 AM HST 8:50 PM HST
Moon 9:03 AM HST (7/11) 9:45 PM HST (7/11)
Length of Visible Light 14h 12m
Length of Day
13h 23m
Waxing Crescent, 12% of the Moon is Illuminated
Jul 11
Waxing Crescent
Jul 15
First Quarter
Jul 22
Full
Jul 29
Last Quarter
Aug 6
New

Hourly Weather History & Observations

Time (HST) Temp. Heat Index Dew Point Humidity Pressure Visibility Wind Dir Wind Speed Gust Speed Precip Events Conditions
12:56 AM 75.9 °F - 63.0 °F 64% 30.13 in 10.0 mi Calm Calm - N/A   Scattered Clouds
1:56 AM 75.0 °F - 63.0 °F 66% 30.11 in 10.0 mi South 3.5 mph - N/A   Overcast
2:56 AM 78.1 °F - 64.0 °F 62% 30.10 in 10.0 mi Calm Calm - N/A   Overcast
3:56 AM 77.0 °F - 64.9 °F 66% 30.09 in 10.0 mi SSE 3.5 mph - N/A   Overcast
4:56 AM 75.9 °F - 64.0 °F 67% 30.09 in 10.0 mi Calm Calm - N/A   Mostly Cloudy
5:56 AM 78.1 °F - 64.9 °F 64% 30.09 in 10.0 mi Calm Calm - N/A   Partly Cloudy
7:56 AM 79.0 °F - 66.0 °F 64% 30.12 in 10.0 mi West 8.1 mph - N/A   Overcast
8:56 AM 79.0 °F - 64.9 °F 62% 30.12 in 10.0 mi Variable 3.5 mph - N/A   Overcast
9:56 AM 80.1 °F 81.9 °F 64.9 °F 60% 30.12 in 10.0 mi West 3.5 mph - N/A   Overcast
10:56 AM 81.0 °F 82.7 °F 64.9 °F 58% 30.12 in 10.0 mi West 5.8 mph - 0.00 in   Mostly Cloudy
11:56 AM 82.9 °F 84.6 °F 64.9 °F 54% 30.11 in 10.0 mi West 8.1 mph - N/A   Mostly Cloudy
12:56 PM 82.0 °F 84.9 °F 68.0 °F 62% 30.10 in 10.0 mi WNW 10.4 mph - N/A   Mostly Cloudy
1:56 PM 84.0 °F 87.0 °F 68.0 °F 58% 30.08 in 10.0 mi West 10.4 mph - N/A   Scattered Clouds
2:56 PM 82.0 °F 84.9 °F 68.0 °F 62% 30.06 in 10.0 mi West 6.9 mph - N/A   Scattered Clouds
3:56 PM 82.9 °F 85.8 °F 68.0 °F 60% 30.04 in 10.0 mi West 8.1 mph - N/A   Partly Cloudy
4:56 PM 84.0 °F 86.5 °F 66.9 °F 56% 30.03 in 10.0 mi West 9.2 mph - N/A   Clear
5:56 PM 84.0 °F 86.3 °F 66.0 °F 55% 30.04 in 10.0 mi SW 9.2 mph - N/A   Scattered Clouds
6:56 PM 82.0 °F 84.1 °F 66.0 °F 58% 30.05 in 10.0 mi West 6.9 mph - N/A   Scattered Clouds
7:56 PM 81.0 °F 82.2 °F 63.0 °F 54% 30.07 in 10.0 mi Variable 5.8 mph - N/A   Mostly Cloudy
8:56 PM 77.0 °F - 62.1 °F 60% 30.09 in 10.0 mi SE 5.8 mph - N/A   Clear
9:56 PM 75.9 °F - 62.1 °F 62% 30.09 in 10.0 mi Calm Calm - N/A   Partly Cloudy
10:56 PM 75.0 °F - 61.0 °F 62% 30.10 in 10.0 mi East 4.6 mph - N/A   Clear
11:56 PM 73.0 °F - 61.0 °F 66% 30.10 in 10.0 mi Calm Calm - N/A   Clear